Regional Weather Roundup
Issued by NWS Midland/Odessa, TX

Home | Current Version | Previous Version | Text Only | Print | Product List | Glossary On
Versions: 1 2 3 4 5 6 7 8 9 10 11 12 13 14 15 16 17 18 19 20 21 22 23 24 25 26 27 28 29 30 31 32 33 34 35 36 37 38 39 40 41 42 43 44 45 46 47 48 49 50
000
ASUS44 KMAF 021810
RWRMAF
MIDLAND AREA WEATHER ROUNDUP
NATIONAL WEATHER SERVICE MIDLAND TX
100 PM CDT THU JUL 02 2015

...IN SOUTHWEST TEXAS AND SOUTHEAST NEW MEXICO...

CITY           SKY/WX    TMP DP  RH WIND       PRES   REMARKS
ALPINE         NOT AVBL
ANDREWS        NOT AVBL
ARTESIA        MOSUNNY   84  64  51 E8        30.04F
BIG SPRING     NOT AVBL
CARLSBAD       SUNNY     87  64  46 S8        30.02F
DRYDEN           N/A     86  66  51 S8        29.97F
FORT STOCKTON  SUNNY     86  65  49 E9        29.99F
GUAD PASS      SUNNY     81  61  50 NE21      30.17S
HOBBS          SUNNY     84  63  48 SE8       30.06S
MARFA          SUNNY    N/A N/A N/A NE5G17    30.12F
MIDLAND AIRPK  NOT AVBL
MIDLAND INTL   MOSUNNY   81  64  56 SE9       30.02F
ODESSA         MOSUNNY   81  63  54 MISG      30.03F
PECOS          NOT AVBL
PRESIDIO       NOT AVBL
SEMINOLE       NOT AVBL
SNYDER         NOT AVBL
WINK           MOSUNNY   87  63  44 E8        30.00S
$$
...OTHER STATIONS IN TEXAS...

CITY           SKY/WX    TMP DP  RH WIND       PRES   REMARKS
ABILENE        MOSUNNY   85  66  53 SW14      30.00F
AMARILLO       CLOUDY    81  63  54 E8        30.05R
AUSTIN         PTSUNNY   86  72  62 S16       30.01F
BROWNSVILLE    PTSUNNY   79  78  97 S8        30.02S
CORPUS CHRISTI PTSUNNY   89  76  65 SE21G30   30.02S HX 100
DALLAS FTW     MOSUNNY   89  65  44 SW22G30   29.97F
DEL RIO        MOSUNNY   83  68  60 SE14G26   29.97F
EL PASO        PTSUNNY   92  51  24 E6        30.02F
HOUSTON INT    CLOUDY    89  74  60 S6G18     30.03F
LUBBOCK        PTSUNNY   88  63  43 SE6       30.02F
SAN ANGELO     SUNNY     85  64  49 S10G18    30.01S
SAN ANTONIO    PTSUNNY   86  71  60 S17       30.02F
WACO           MOSUNNY   89  69  51 S17G25    30.01F
WICHITA FALLS  NOT AVBL
$$
...OTHER LOCATIONS IN NEW MEXICO...

CITY           SKY/WX    TMP DP  RH WIND       PRES   REMARKS
ALAMAGORDO     MOSUNNY   91  50  24 W10       30.04S
ALBUQUERQUE    MOSUNNY   88  51  28 NW7       30.13F
CANNON AFB     NOT AVBL
CLOVIS         PTSUNNY   82  63  51 SE6         N/A
HOLLOMAN AFB   MOSUNNY   92  50  24 SE5       30.01F
ROSWELL        MOSUNNY   87  62  43 VRB6      30.04F
RUIDOSO        SUNNY     77  46  33 SE8       30.28S
SANTA FE       PTSUNNY   80  53  39 N15       30.19F
TRUTH OR CONSE SUNNY     90  51  26 MISG      30.08S
TUCUMCARI      MOSUNNY   83  59  44 VRB3      30.06S
$$


USA.gov is the U.S. government's official web portal to all federal, state and local government web resources and services.